Location: Bastogne Gables
(35.1554°N, 78.9900°W)
Time: 03:38:51
(UTC+00:00)

SKYMED 2 - Pass Details

Date: 29 October 2020
Orbit: 621 x 623 km, 97.9° (Epoch: 26 November)

Event Time Altitude Azimuth Distance (km) Brightness Sun altitude
Rises 22:44:47 0° 22° (NNE) 2,906 6.7 -5.0°
Reaches altitude 10° 22:47:08 10° 31° (NNE) 1,995 5.8 -5.4°
Maximum altitude 22:51:07 35° 98° (E) 1,000 4.2 -6.2°
Drops below altitude 10° 22:55:05 10° 165° (SSE) 1,981 6.1 -7.0°
Sets 22:57:24 0° 174° (S) 2,883 7.1 -7.5°
